DW4915 Mazarete ES current weather conditions

sailwx.info

Wind from 244 at 0 knots gusting 3

Air temperature 29.4° C
Dewpoint 6.1° C

Last reported at 2014-Jul-24 14:41 UTC.
Time now 2014-Jul-24 15:27 UTC

Location: N 40°58' W 002°11'.
View on Google Maps.

See reports from other nearby stations

  
Tides and Currents Weather Stations Pressure Air Temp Water Temp Dewpoint Dewpoint Depression Visibility Wind Speed Wind Dir Waves Ship Positions
date/time (UTC)wind fromknots sea level pressurealtimeterstation pressurevisibilityair tempwater tempwave heightnotes
2014-Jul-24 14:41 244 0 gusting 3 29.4
2014-Jul-24 14:36 248 29.4
2014-Jul-24 14:26 241 4 gusting 9 30.0
2014-Jul-24 14:21 227 3 gusting 7 30.6
2014-Jul-24 14:11 227 3 gusting 6 30.0
2014-Jul-24 13:41 231 29.4
2014-Jul-24 13:31 281 5 gusting 10 30.0
2014-Jul-24 13:26 253 3 gusting 13 30.0
2014-Jul-24 13:21 252 9 gusting 13 30.6
2014-Jul-24 13:16 266 3 gusting 7 30.0
2014-Jul-24 13:11 265 4 gusting 12 30.0
2014-Jul-24 13:06 256 6 gusting 12 30.0
2014-Jul-24 12:56 188 4 gusting 9 30.0
2014-Jul-24 12:51 256 30.0
2014-Jul-24 12:46 282 3 gusting 6 30.0
2014-Jul-24 12:36 281 0 gusting 6 30.0
2014-Jul-24 12:31 281 3 gusting 13 29.4
2014-Jul-24 12:26 282 4 gusting 13 30.0
2014-Jul-24 12:21 264 6 gusting 11 30.0
2014-Jul-24 12:16 261 4 gusting 8 29.4
2014-Jul-24 12:11 251 0 gusting 10 28.9
2014-Jul-24 12:06 277 4 gusting 9 28.9
2014-Jul-24 11:56 266 7 gusting 12 28.9
2014-Jul-24 11:51 285 6 gusting 12 28.3
2014-Jul-24 11:46 296 4 gusting 7 28.3
2014-Jul-24 11:41 167 2 gusting 6 27.8
2014-Jul-24 11:36 165 3 gusting 6 27.8
2014-Jul-24 11:31 186 27.8
2014-Jul-24 11:21 185 28.3
2014-Jul-24 11:16 187 2 gusting 9 28.3
2014-Jul-24 11:11 187 6 gusting 9 28.3
2014-Jul-24 11:01 067 3 gusting 6 28.3
2014-Jul-24 10:56 068 2 gusting 6 28.3
2014-Jul-24 10:51 067 3 gusting 6 27.8
2014-Jul-24 10:41 068 1 gusting 6 27.8
2014-Jul-24 10:36 069 3 gusting 7 27.8
2014-Jul-24 10:31 067 3 gusting 8 27.2
2014-Jul-24 10:21 068 0 gusting 9 27.2
2014-Jul-24 10:16 068 2 gusting 8 27.2
2014-Jul-24 10:06 066 3 gusting 7 27.2
2014-Jul-24 10:01 067 4 gusting 7 26.7
2014-Jul-24 09:56 067 3 gusting 6 26.1
2014-Jul-24 09:51 068 3 gusting 6 26.1
2014-Jul-24 09:41 067 2 gusting 6 26.1
2014-Jul-24 09:36 068 1 gusting 6 25.6
2014-Jul-24 09:31 069 4 gusting 8 25.6
2014-Jul-24 09:21 068 3 gusting 6 25.6
2014-Jul-24 09:16 066 3 gusting 6 25.6
2014-Jul-24 09:11 067 3 gusting 6 25.0
2014-Jul-24 09:01 068 3 gusting 6 25.0
2014-Jul-24 08:56 068 4 gusting 6 24.4
2014-Jul-24 08:51 068 3 gusting 9 23.9
2014-Jul-24 08:46 067 4 gusting 9 23.9
2014-Jul-24 08:36 070 5 gusting 8 23.9
2014-Jul-24 08:31 068 6 gusting 8 23.3
2014-Jul-24 08:21 067 4 gusting 6 23.3
2014-Jul-24 08:16 069 3 gusting 6 22.8
2014-Jul-24 08:11 067 4 gusting 8 22.8
2014-Jul-24 07:51 068 6 gusting 9 21.7
2014-Jul-24 07:46 068 3 gusting 11 21.7
2014-Jul-24 07:41 069 6 gusting 11 21.7
2014-Jul-24 07:31 070 7 gusting 10 21.7
2014-Jul-24 07:26 070 6 gusting 13 21.1
2014-Jul-24 07:21 072 6 gusting 13 21.1
2014-Jul-24 07:11 079 6 gusting 10 21.1
2014-Jul-24 07:06 081 6 gusting 10 21.1
2014-Jul-24 06:56 079 6 gusting 11 20.0
2014-Jul-24 06:51 079 5 gusting 10 19.4
2014-Jul-24 06:46 079 5 gusting 7 18.9
2014-Jul-24 06:41 078 18.3
2014-Jul-24 06:31 079 17.8
2014-Jul-24 06:26 079 17.8
2014-Jul-24 06:21 079 2 gusting 5 17.2
2014-Jul-24 06:11 080 1 gusting 6 16.7
2014-Jul-24 06:06 081 3 gusting 6 16.7
2014-Jul-24 05:56 079 0 gusting 6 16.7
2014-Jul-24 05:51 079 4 gusting 6 16.7
2014-Jul-24 05:46 079 2 gusting 6 16.7
2014-Jul-24 04:46 080 0 gusting 9 17.8
2014-Jul-24 04:41 080 5 gusting 12 17.8
2014-Jul-24 04:31 081 6 gusting 11 17.2
2014-Jul-24 04:26 080 0 gusting 3 17.2
2014-Jul-24 04:21 075 17.8
2014-Jul-24 04:11 078 3 gusting 9 18.3
2014-Jul-24 04:06 077 4 gusting 9 18.3
2014-Jul-24 03:56 077 5 gusting 9 18.3
2014-Jul-24 03:51 077 6 gusting 12 18.3
2014-Jul-24 03:46 077 7 gusting 12 18.3
2014-Jul-24 03:36 077 9 gusting 14 18.3
2014-Jul-24 03:31 075 8 gusting 13 18.3
2014-Jul-24 03:26 075 9 gusting 13 18.3
2014-Jul-24 03:16 079 6 gusting 13 18.3
2014-Jul-24 03:11 083 8 gusting 13 18.9
2014-Jul-24 03:06 083 9 gusting 13 18.9
2014-Jul-24 02:56 083 7 gusting 13 18.3
2014-Jul-24 02:46 080 7 gusting 12 17.8
2014-Jul-24 02:41 077 6 gusting 10 17.8
2014-Jul-24 02:36 077 6 gusting 10 17.8
2014-Jul-24 02:26 073 7 gusting 11 17.2
2014-Jul-24 02:21 073 7 gusting 10 17.2
2014-Jul-24 02:16 071 7 gusting 10 17.2
2014-Jul-24 02:06 071 6 gusting 10 17.8
2014-Jul-24 02:01 072 6 gusting 10 17.8
2014-Jul-24 01:56 071 6 gusting 11 17.8
2014-Jul-24 01:46 070 7 gusting 11 17.8
2014-Jul-24 01:41 072 6 gusting 11 17.8
2014-Jul-24 01:36 074 6 gusting 13 17.8
2014-Jul-24 01:26 071 8 gusting 13 17.8
2014-Jul-24 01:21 072 9 gusting 13 17.8
2014-Jul-24 01:11 071 9 gusting 15 17.8
2014-Jul-24 01:06 071 8 gusting 13 17.8
2014-Jul-24 01:01 069 8 gusting 13 17.8
2014-Jul-24 00:56 066 8 gusting 13 17.8
2014-Jul-24 00:46 068 9 gusting 12 17.8
2014-Jul-24 00:41 068 7 gusting 13 17.8
2014-Jul-24 00:31 066 7 gusting 11 17.8
2014-Jul-24 00:26 071 7 gusting 12 18.3
2014-Jul-24 00:21 071 8 gusting 12 18.3
2014-Jul-24 00:11 070 6 gusting 11 18.3
2014-Jul-24 00:06 070 6 gusting 12 18.3
2014-Jul-24 00:01 070 7 gusting 12 18.3
2014-Jul-23 23:51 071 8 gusting 12 18.3
2014-Jul-23 23:46 072 7 gusting 12 18.9
2014-Jul-23 23:41 075 6 gusting 10 18.9
2014-Jul-23 23:31 077 6 gusting 12 19.4
2014-Jul-23 23:26 077 8 gusting 13 19.4
2014-Jul-23 23:21 073 9 gusting 13 19.4
2014-Jul-23 23:11 071 8 gusting 13 19.4
2014-Jul-23 23:06 072 8 gusting 13 19.4
2014-Jul-23 23:01 073 9 gusting 13 19.4
2014-Jul-23 22:56 071 8 gusting 13 19.4
2014-Jul-23 22:51 072 8 gusting 13 19.4
2014-Jul-23 22:46 071 8 gusting 13 19.4
2014-Jul-23 22:41 070 8 gusting 12 19.4
2014-Jul-23 22:31 073 8 gusting 13 19.4
2014-Jul-23 22:26 069 8 gusting 13 19.4
2014-Jul-23 22:16 071 8 gusting 11 19.4
2014-Jul-23 22:11 070 7 gusting 14 20.0
2014-Jul-23 22:06 073 9 gusting 14 20.0
2014-Jul-23 21:56 070 8 gusting 13 20.0
2014-Jul-23 21:11 068 6 gusting 11 21.1
2014-Jul-23 21:06 068 6 gusting 11 21.1
2014-Jul-23 21:01 067 6 gusting 12 21.1
2014-Jul-23 20:51 069 6 gusting 13 21.7
2014-Jul-23 20:46 069 7 gusting 13 21.7
2014-Jul-23 20:36 069 6 gusting 13 21.7
2014-Jul-23 20:31 069 6 gusting 9 22.2
2014-Jul-23 20:26 068 5 gusting 9 22.2
2014-Jul-23 20:16 070 7 gusting 11 22.8
2014-Jul-23 20:06 304 6 gusting 11 22.8
2014-Jul-23 20:01 304 3 gusting 8 22.8
2014-Jul-23 19:56 304 22.8
2014-Jul-23 19:51 304 0 gusting 6 22.2
2014-Jul-23 19:46 304 4 gusting 6 21.7
2014-Jul-23 19:41 304 0 gusting 5 21.7
2014-Jul-23 19:26 303 22.2
2014-Jul-23 19:21 304 1 gusting 2 22.2
2014-Jul-23 19:16 304 2 gusting 4 22.2
2014-Jul-23 19:11 302 2 gusting 4 22.8
2014-Jul-23 19:06 303 2 gusting 4 22.8
2014-Jul-23 18:56 304 3 gusting 6 23.9
2014-Jul-23 18:51 304 4 gusting 6 24.4
2014-Jul-23 18:46 306 4 gusting 5 25.0
2014-Jul-23 18:36 304 3 gusting 6 26.1
2014-Jul-23 18:31 301 4 gusting 6 26.1
2014-Jul-23 18:26 306 3 gusting 6 26.7
2014-Jul-23 18:21 306 4 gusting 7 27.2
2014-Jul-23 18:16 305 5 gusting 7 27.8
2014-Jul-23 18:11 304 6 gusting 7 28.3
2014-Jul-23 18:06 304 6 gusting 9 28.3
2014-Jul-23 18:01 303 7 gusting 9 28.9
2014-Jul-23 17:56 304 6 gusting 11 29.4
2014-Jul-23 17:46 302 7 gusting 12 29.4
2014-Jul-23 17:41 260 6 gusting 8 30.0
2014-Jul-23 17:36 260 4 gusting 6 29.4
2014-Jul-23 17:31 260 1 gusting 8 29.4
2014-Jul-23 17:21 259 3 gusting 7 30.6
2014-Jul-23 17:16 260 3 gusting 6 30.6
2014-Jul-23 17:11 259 30.6
2014-Jul-23 17:06 259 5 gusting 11 30.6
2014-Jul-23 16:56 241 2 gusting 8 31.1
2014-Jul-23 16:51 240 3 gusting 11 30.6
2014-Jul-23 16:46 240 6 gusting 11 30.6
2014-Jul-23 16:41 261 4 gusting 9 30.6
2014-Jul-23 16:36 260 7 gusting 11 30.6
2014-Jul-23 16:26 262 4 gusting 9 31.1
2014-Jul-23 16:21 262 5 gusting 9 31.1
2014-Jul-23 16:16 262 1 gusting 7 31.1
2014-Jul-23 16:11 261 4 gusting 8 31.1
2014-Jul-23 16:06 251 2 gusting 14 31.1
2014-Jul-23 15:56 254 6 gusting 10 31.1
2014-Jul-23 15:46 275 3 gusting 11 31.1
2014-Jul-23 15:41 271 7 gusting 12 30.6
2014-Jul-23 15:36 267 6 gusting 11 30.6
2014-Jul-23 15:26 248 6 gusting 10 30.6
2014-Jul-23 15:21 247 6 gusting 12 30.6
2014-Jul-23 15:11 287 5 gusting 10 30.6
2014-Jul-23 15:06 284 6 gusting 13 30.6
2014-Jul-23 15:01 288 5 gusting 13 30.6
2014-Jul-23 14:56 273 3 gusting 12 30.6
2014-Jul-23 14:51 267 7 gusting 11 30.6
2014-Jul-23 14:46 297 3 gusting 11 30.6
2014-Jul-23 14:36 256 5 gusting 12 30.0
2014-Jul-23 14:31 270 2 gusting 12 30.0
2014-Jul-23 14:26 252 7 gusting 15 30.0
2014-Jul-23 14:16 288 3 gusting 11 30.0
2014-Jul-23 14:11 290 4 gusting 15 30.0
2014-Jul-23 14:06 296 6 gusting 11 30.0
2014-Jul-23 14:01 300 7 gusting 12 30.0
2014-Jul-23 13:51 275 6 gusting 13 30.0
2014-Jul-23 13:41 243 10 gusting 15 29.4
2014-Jul-23 13:36 279 1 gusting 11 29.4
2014-Jul-23 13:31 279 6 gusting 13 29.4
2014-Jul-23 13:26 284 7 gusting 13 29.4
2014-Jul-23 13:21 254 3 gusting 10 29.4
2014-Jul-23 13:16 254 6 gusting 10 29.4
2014-Jul-23 13:06 294 4 gusting 10 28.9
2014-Jul-23 13:01 294 6 gusting 10 28.9
2014-Jul-23 12:56 276 5 gusting 9 28.9
2014-Jul-23 12:46 267 5 gusting 11 28.9
2014-Jul-23 12:41 273 1 gusting 9 28.3
2014-Jul-23 12:36 273 5 gusting 10 28.9
2014-Jul-23 12:26 272 6 gusting 12 28.3
2014-Jul-23 12:21 279 6 gusting 10 28.3
2014-Jul-23 12:16 278 3 gusting 13 28.3
2014-Jul-23 12:06 279 4 gusting 13 28.3
2014-Jul-23 12:01 277 8 gusting 12 28.3
2014-Jul-23 11:56 271 6 gusting 12 28.3
2014-Jul-23 11:46 285 7 gusting 11 27.8
2014-Jul-23 11:41 281 6 gusting 12 27.8
2014-Jul-23 11:36 281 6 gusting 11 27.2
2014-Jul-23 11:26 292 9 gusting 13 27.2
2014-Jul-23 11:21 310 6 gusting 13 27.2
2014-Jul-23 11:16 312 6 gusting 13 27.2
2014-Jul-23 11:06 275 6 gusting 11 27.2
2014-Jul-23 11:01 275 5 gusting 11 27.2
2014-Jul-23 10:56 252 2 gusting 10 26.7
2014-Jul-23 10:51 251 5 gusting 10 26.7
2014-Jul-23 10:46 252 3 gusting 10 26.7
2014-Jul-23 10:36 261 8 gusting 11 26.1
2014-Jul-23 10:31 273 1 gusting 10 26.1
2014-Jul-23 10:26 275 6 gusting 11 26.7
2014-Jul-23 10:21 273 7 gusting 10 26.1
2014-Jul-23 10:11 273 4 gusting 8 25.6
2014-Jul-23 10:06 273 6 gusting 10 25.6
2014-Jul-23 10:01 298 6 gusting 11 25.6
2014-Jul-23 09:56 020 3 gusting 7 25.6
2014-Jul-23 09:46 019 4 gusting 6 25.0
2014-Jul-23 09:41 021 4 gusting 6 25.0
2014-Jul-23 09:36 021 5 gusting 6 24.4
2014-Jul-23 09:31 023 4 gusting 6 24.4
2014-Jul-23 09:26 022 4 gusting 7 24.4
2014-Jul-23 09:21 022 3 gusting 7 24.4
2014-Jul-23 09:11 052 3 gusting 6 23.9
2014-Jul-23 09:06 051 5 gusting 6 23.9
2014-Jul-23 08:56 052 4 gusting 6 23.3
2014-Jul-23 08:51 052 3 gusting 6 23.3
2014-Jul-23 08:46 051 2 gusting 6 22.8
2014-Jul-23 08:41 051 4 gusting 6 22.8
2014-Jul-23 08:36 050 5 gusting 6 22.2
2014-Jul-23 08:31 052 5 gusting 6 22.2
2014-Jul-23 08:26 052 4 gusting 6 22.2
2014-Jul-23 08:16 053 4 gusting 6 21.7
2014-Jul-23 08:11 050 5 gusting 6 21.7
2014-Jul-23 08:06 052 4 gusting 6 21.1
2014-Jul-23 07:56 051 2 gusting 6 21.1
2014-Jul-23 07:51 054 4 gusting 6 21.1
2014-Jul-23 07:41 052 0 gusting 3 20.6
2014-Jul-23 07:36 049 20.6
2014-Jul-23 07:31 052 0 gusting 3 20.6
2014-Jul-23 07:21 052 20.0
2014-Jul-23 07:16 051 0 gusting 2 19.4
2014-Jul-23 07:11 052 0 gusting 3 19.4
2014-Jul-23 07:01 052 18.3
2014-Jul-23 06:56 052 17.8
2014-Jul-23 06:51 052 17.2
2014-Jul-23 06:06 051 12.2
2014-Jul-23 06:01 053 11.1
2014-Jul-23 05:56 052 10.6
2014-Jul-23 05:51 052 10.0
2014-Jul-23 05:46 051 9.4
2014-Jul-23 05:41 052 9.4
2014-Jul-23 05:31 051 8.9
2014-Jul-23 05:26 052 8.9
2014-Jul-23 05:21 052 8.9
2014-Jul-23 05:16 052 8.9
2014-Jul-23 05:11 052 8.9
2014-Jul-23 05:06 051 8.9
2014-Jul-23 04:56 052 8.9
2014-Jul-23 04:51 051 8.9
2014-Jul-23 04:46 051 9.4
2014-Jul-23 04:41 052 9.4
2014-Jul-23 04:31 052 9.4
2014-Jul-23 04:26 052 9.4
2014-Jul-23 04:21 052 9.4
2014-Jul-23 04:16 052 10.0
2014-Jul-23 04:06 052 10.0
2014-Jul-23 04:01 052 10.0
2014-Jul-23 03:51 052 10.0
2014-Jul-23 03:46 052 10.0
2014-Jul-23 03:36 052 10.0
2014-Jul-23 03:31 051 10.0
2014-Jul-23 03:26 052 10.0
2014-Jul-23 03:21 052 10.6
2014-Jul-23 03:11 051 10.6
2014-Jul-23 03:06 051 10.6
2014-Jul-23 02:56 052 11.1
2014-Jul-23 02:51 052 11.1
2014-Jul-23 02:46 052 11.7
2014-Jul-23 02:41 052 11.7
2014-Jul-23 02:31 052 12.8
2014-Jul-23 02:26 052 12.8
2014-Jul-23 02:16 052 13.9
2014-Jul-23 02:11 051 14.4
2014-Jul-23 02:06 051 14.4
2014-Jul-23 02:01 052 14.4
2014-Jul-23 01:56 052 15.0
2014-Jul-23 01:46 053 15.0
2014-Jul-23 01:41 052 15.0
2014-Jul-23 01:36 052 15.0
2014-Jul-23 01:26 052 1 gusting 5 15.0
2014-Jul-23 01:21 051 15.6
2014-Jul-23 01:11 050 15.6
2014-Jul-23 01:06 051 1 gusting 7 16.1
2014-Jul-23 01:01 052 3 gusting 7 15.6
2014-Jul-23 00:56 050 1 gusting 6 15.6
2014-Jul-23 00:51 051 1 gusting 5 15.6
2014-Jul-23 00:46 052 15.6
2014-Jul-23 00:41 052 1 gusting 5 15.6
2014-Jul-23 00:31 052 0 gusting 3 15.0
2014-Jul-23 00:26 051 1 gusting 3 15.0
2014-Jul-23 00:16 051 16.1
2014-Jul-23 00:11 052 3 gusting 7 16.1
2014-Jul-23 00:06 052 2 gusting 8 16.1
2014-Jul-22 23:56 052 3 gusting 11 16.1
2014-Jul-22 23:51 051 6 gusting 11 16.1
2014-Jul-22 23:46 052 7 gusting 11 16.1
2014-Jul-22 23:41 048 6 gusting 11 16.1
2014-Jul-22 23:36 048 6 gusting 11 16.1
2014-Jul-22 23:31 044 6 gusting 13 16.1
2014-Jul-22 23:26 044 6 gusting 13 16.7
2014-Jul-22 23:16 036 1 gusting 9 16.7
2014-Jul-22 23:11 038 6 gusting 9 16.1
2014-Jul-22 23:06 038 5 gusting 11 16.1
2014-Jul-22 22:56 349 4 gusting 9 15.0
2014-Jul-22 22:51 352 15.6
2014-Jul-22 22:41 349 16.1
2014-Jul-22 22:36 348 16.7
2014-Jul-22 22:31 348 17.2
2014-Jul-22 22:21 348 0 gusting 5 17.8
2014-Jul-22 22:16 352 1 gusting 4 17.2
2014-Jul-22 22:11 348 16.7
2014-Jul-22 22:01 348 17.2
2014-Jul-22 21:51 350 17.8
2014-Jul-22 21:46 349 2 gusting 5 17.8
2014-Jul-22 21:41 350 2 gusting 4 17.8
2014-Jul-22 21:36 348 17.2
2014-Jul-22 21:31 348 17.8
2014-Jul-22 21:21 349 18.3
2014-Jul-22 21:16 349 18.9
2014-Jul-22 20:06 310 5 gusting 7 19.4
2014-Jul-22 19:56 310 4 gusting 5 19.4
2014-Jul-22 19:51 310 2 gusting 6 20.0
2014-Jul-22 19:46 309 3 gusting 7 20.0
2014-Jul-22 19:41 310 5 gusting 7 20.0
2014-Jul-22 19:36 309 6 gusting 7 20.0
2014-Jul-22 19:31 310 20.0
2014-Jul-22 19:26 310 20.6
2014-Jul-22 19:16 309 21.1
2014-Jul-22 19:11 310 22.2
2014-Jul-22 19:01 310 23.3
2014-Jul-22 18:56 309 23.9
2014-Jul-22 18:51 309 24.4
2014-Jul-22 18:41 310 25.6
2014-Jul-22 18:36 310 0 gusting 1 25.6
2014-Jul-22 18:31 310 26.1
2014-Jul-22 18:26 310 1 gusting 5 26.7
2014-Jul-22 18:16 310 3 gusting 6 27.2
2014-Jul-22 18:11 310 3 gusting 6 27.8
2014-Jul-22 18:06 310 5 gusting 6 27.8
2014-Jul-22 18:01 310 3 gusting 6 28.3
2014-Jul-22 17:56 311 0 gusting 2 28.3
2014-Jul-22 17:51 309 28.3
2014-Jul-22 17:41 310 1 gusting 4 28.3
2014-Jul-22 17:36 310 28.3
2014-Jul-22 17:31 309 28.3
2014-Jul-22 17:26 310 0 gusting 7 27.8
2014-Jul-22 17:21 310 5 gusting 7 27.8
2014-Jul-22 17:11 309 3 gusting 7 28.3
2014-Jul-22 17:06 310 2 gusting 5 28.3
2014-Jul-22 17:01 310 3 gusting 5 28.3
2014-Jul-22 16:56 309 1 gusting 8 28.3
2014-Jul-22 16:46 308 3 gusting 9 28.3
2014-Jul-22 16:41 310 2 gusting 9 28.3
2014-Jul-22 16:36 310 2 gusting 9 28.3
2014-Jul-22 16:26 310 0 gusting 7 28.3
2014-Jul-22 16:21 310 1 gusting 7 27.8
2014-Jul-22 16:16 310 2 gusting 7 27.8
2014-Jul-22 16:06 309 5 gusting 12 28.3
2014-Jul-22 16:01 317 6 gusting 9 28.3
2014-Jul-22 15:56 318 5 gusting 13 28.3
2014-Jul-22 15:46 316 5 gusting 8 28.3
2014-Jul-22 15:41 314 27.8
2014-Jul-22 15:36 313 0 gusting 8 27.8